• în Republica Moldova
  • Lista ţărilor
  • Pe 7 zile
  • Temperatura apei
  • Hartă satelitară
  • Meteo pe hartă
  • Widget-uri
  • user-avatar
    Intrare

    Meteo pe oră la Canberra

    Astăzi, 26 Mai, Vineri

    Timp Temperatura Precipitaţii Vânt Presiune Umiditate
    00:00 +6°C° 0 mm 1 m/s 711 mmHg 95%
    01:00 +6°C° 0 mm 1 m/s 711 mmHg 95%
    02:00 +6°C° 0 mm 1 m/s 711 mmHg 94%
    03:00 +6°C° 0 mm 1 m/s 711 mmHg 93%
    04:00 +6°C° 0 mm 1 m/s 711 mmHg 92%
    05:00 +5°C° 0 mm 1 m/s 711 mmHg 93%
    06:00 +5°C° 0 mm 1 m/s 711 mmHg 93%
    07:00 +5°C° 0 mm 1 m/s 712 mmHg 94%
    08:00 +8°C° 0 mm 1 m/s 712 mmHg 83%
    09:00 +11°C° 0 mm 1 m/s 713 mmHg 73%
    10:00 +14°C° 0 mm 1 m/s 713 mmHg 61%
    11:00 +15°C° 0 mm 1 m/s 713 mmHg 56%
    12:00 +16°C° 0 mm 1 m/s 713 mmHg 52%
    13:00 +19°C° 0 mm 1 m/s 713 mmHg 47%
    14:00 +18°C° 0 mm 1 m/s 712 mmHg 52%
    15:00 +16°C° 0 mm 1 m/s 712 mmHg 57%
    16:00 +14°C° 0 mm 1 m/s 712 mmHg 69%
    17:00 +12°C° 0 mm 1 m/s 712 mmHg 77%
    18:00 +9°C° 0 mm 1 m/s 712 mmHg 86%
    19:00 +7°C° 0 mm 1 m/s 712 mmHg 94%
    20:00 +7°C° 0 mm 1 m/s 712 mmHg 95%
    21:00 +6°C° 0 mm 1 m/s 712 mmHg 96%
    22:00 +5°C° 0 mm 1 m/s 712 mmHg 97%
    23:00 +5°C° 0 mm 1 m/s 712 mmHg 97%

    Mâine, 27 Mai, Sâmbătă

    Timp Temperatura Precipitaţii Vânt Presiune Umiditate
    00:00 +5°C° 0 mm 1 m/s 712 mmHg 98%
    01:00 +5°C° 0 mm 1 m/s 712 mmHg 98%
    02:00 +3°C° 0 mm 0 m/s 711 mmHg 98%
    03:00 +3°C° 0 mm 0 m/s 711 mmHg 98%
    04:00 +3°C° 0 mm 0 m/s 711 mmHg 99%
    05:00 +3°C° 0 mm 0 m/s 711 mmHg 99%
    06:00 +2°C° 0 mm 0 m/s 711 mmHg 99%
    07:00 +2°C° 0 mm 0 m/s 711 mmHg 99%
    08:00 +7°C° 0 mm 1 m/s 711 mmHg 90%
    09:00 +10°C° 0 mm 1 m/s 712 mmHg 81%
    10:00 +13°C° 0 mm 1 m/s 712 mmHg 72%
    11:00 +15°C° 0 mm 1 m/s 711 mmHg 65%
    12:00 +16°C° 0 mm 2 m/s 711 mmHg 58%
    13:00 +17°C° 0 mm 2 m/s 710 mmHg 51%
    14:00 +16°C° 0 mm 2 m/s 710 mmHg 54%
    15:00 +16°C° 0 mm 2 m/s 709 mmHg 57%
    16:00 +15°C° 0 mm 2 m/s 709 mmHg 60%
    17:00 +13°C° 0 mm 1 m/s 709 mmHg 70%
    18:00 +10°C° 0 mm 1 m/s 708 mmHg 79%
    19:00 +8°C° 0 mm 1 m/s 708 mmHg 89%
    20:00 +8°C° 0 mm 1 m/s 708 mmHg 90%
    21:00 +7°C° 0 mm 1 m/s 708 mmHg 92%
    22:00 +6°C° 0 mm 2 m/s 708 mmHg 93%
    23:00 +6°C° 0 mm 2 m/s 707 mmHg 93%

    Poimâine, 28 Mai, Duminică

    Timp Temperatura Precipitaţii Vânt Presiune Umiditate
    00:00 +6°C° 0 mm 2 m/s 707 mmHg 93%
    01:00 +6°C° 0 mm 2 m/s 707 mmHg 93%
    02:00 +6°C° 0 mm 2 m/s 706 mmHg 93%
    03:00 +6°C° 0 mm 2 m/s 706 mmHg 94%
    04:00 +6°C° 0 mm 2 m/s 705 mmHg 94%
    05:00 +6°C° 0 mm 2 m/s 705 mmHg 94%
    06:00 +6°C° 0 mm 2 m/s 705 mmHg 94%
    07:00 +6°C° 0 mm 2 m/s 705 mmHg 94%
    08:00 +8°C° 0 mm 3 m/s 705 mmHg 87%
    09:00 +8°C° 0 mm 4 m/s 705 mmHg 79%
    10:00 +10°C° 0 mm 5 m/s 705 mmHg 72%
    11:00 +10°C° 0,1 mm 5 m/s 704 mmHg 73%
    12:00 +10°C° 0,1 mm 5 m/s 704 mmHg 74%
    13:00 +10°C° 0,1 mm 6 m/s 704 mmHg 75%
    14:00 +9°C° 0,1 mm 6 m/s 704 mmHg 76%
    15:00 +9°C° 0,1 mm 5 m/s 704 mmHg 76%
    16:00 +8°C° 0,1 mm 5 m/s 704 mmHg 76%
    17:00 +7°C° 0 mm 5 m/s 704 mmHg 78%
    18:00 +7°C° 0 mm 5 m/s 705 mmHg 79%
    19:00 +6°C° 0 mm 4 m/s 705 mmHg 80%
    20:00 +6°C° 0,1 mm 4 m/s 706 mmHg 81%
    21:00 +6°C° 0,1 mm 4 m/s 706 mmHg 81%
    22:00 +5°C° 0,1 mm 4 m/s 706 mmHg 82%
    23:00 +5°C° 0 mm 4 m/s 706 mmHg 81%

    29 Mai, Luni

    Timp Temperatura Precipitaţii Vânt Presiune Umiditate
    00:00 +5°C° 0 mm 4 m/s 706 mmHg 79%
    01:00 +5°C° 0 mm 5 m/s 706 mmHg 78%
    02:00 +4°C° 0 mm 4 m/s 707 mmHg 79%
    03:00 +4°C° 0 mm 4 m/s 707 mmHg 80%
    04:00 +3°C° 0 mm 4 m/s 707 mmHg 81%
    05:00 +3°C° 0 mm 3 m/s 707 mmHg 82%
    06:00 +2°C° 0 mm 3 m/s 708 mmHg 83%
    07:00 +2°C° 0 mm 3 m/s 709 mmHg 84%
    08:00 +3°C° 0 mm 3 m/s 709 mmHg 76%
    09:00 +5°C° 0 mm 3 m/s 710 mmHg 68%
    10:00 +7°C° 0 mm 3 m/s 711 mmHg 60%
    11:00 +8°C° 0 mm 3 m/s 711 mmHg 57%
    12:00 +9°C° 0 mm 3 m/s 710 mmHg 53%
    13:00 +10°C° 0 mm 4 m/s 710 mmHg 50%
    14:00 +9°C° 0 mm 3 m/s 710 mmHg 54%
    15:00 +9°C° 0 mm 3 m/s 711 mmHg 57%
    16:00 +8°C° 0 mm 3 m/s 711 mmHg 61%
    17:00 +6°C° 0 mm 2 m/s 711 mmHg 70%
    18:00 +4°C° 0 mm 2 m/s 711 mmHg 79%
    19:00 +2°C° 0 mm 2 m/s 712 mmHg 88%
    20:00 +3°C° 0 mm 1 m/s 712 mmHg 89%
    21:00 +2°C° 0 mm 1 m/s 712 mmHg 91%
    22:00 +2°C° 0 mm 1 m/s 712 mmHg 92%
    23:00 +1°C° 0 mm 1 m/s 712 mmHg 92%

    30 Mai, Marţi

    Timp Temperatura Precipitaţii Vânt Presiune Umiditate
    00:00 +1°C° 0 mm 1 m/s 712 mmHg 92%
    01:00 +1°C° 0 mm 1 m/s 712 mmHg 93%
    02:00 +1°C° 0 mm 1 m/s 712 mmHg 93%
    03:00 +1°C° 0 mm 1 m/s 711 mmHg 93%
    04:00 +1°C° 0 mm 1 m/s 711 mmHg 93%
    05:00 +1°C° 0 mm 1 m/s 711 mmHg 93%
    06:00 +1°C° 0 mm 1 m/s 711 mmHg 94%
    07:00 +1°C° 0 mm 1 m/s 712 mmHg 94%
    08:00 +2°C° 0 mm 2 m/s 712 mmHg 84%
    09:00 +5°C° 0 mm 2 m/s 712 mmHg 74%
    10:00 +7°C° 0 mm 2 m/s 712 mmHg 64%
    11:00 +9°C° 0 mm 2 m/s 712 mmHg 60%
    12:00 +10°C° 0 mm 3 m/s 711 mmHg 56%
    13:00 +11°C° 0 mm 3 m/s 711 mmHg 53%
    14:00 +11°C° 0 mm 3 m/s 710 mmHg 56%
    15:00 +10°C° 0 mm 2 m/s 710 mmHg 59%
    16:00 +10°C° 0 mm 2 m/s 710 mmHg 63%
    17:00 +8°C° 0 mm 2 m/s 710 mmHg 72%
    18:00 +6°C° 0 mm 2 m/s 710 mmHg 81%
    19:00 +5°C° 0 mm 1 m/s 710 mmHg 90%
    20:00 +4°C° 0 mm 1 m/s 710 mmHg 91%
    21:00 +4°C° 0 mm 1 m/s 710 mmHg 92%
    22:00 +3°C° 0 mm 1 m/s 710 mmHg 93%
    23:00 +3°C° 0 mm 1 m/s 710 mmHg 94%

    31 Mai, Miercuri

    Timp Temperatura Precipitaţii Vânt Presiune Umiditate
    00:00 +2°C° 0 mm 1 m/s 710 mmHg 94%
    01:00 +2°C° 0 mm 1 m/s 709 mmHg 94%
    02:00 +2°C° 0 mm 1 m/s 709 mmHg 94%
    03:00 +2°C° 0 mm 1 m/s 709 mmHg 93%
    04:00 +2°C° 0 mm 1 m/s 709 mmHg 93%
    05:00 +3°C° 0,1 mm 1 m/s 710 mmHg 92%
    06:00 +3°C° 0,1 mm 1 m/s 710 mmHg 91%
    07:00 +4°C° 0,1 mm 1 m/s 710 mmHg 90%
    08:00 +5°C° 0,2 mm 1 m/s 711 mmHg 86%
    09:00 +7°C° 0,2 mm 1 m/s 711 mmHg 82%
    10:00 +8°C° 0,2 mm 1 m/s 712 mmHg 78%
    11:00 +9°C° 0,2 mm 1 m/s 711 mmHg 75%
    12:00 +9°C° 0,2 mm 2 m/s 711 mmHg 73%
    13:00 +10°C° 0,2 mm 2 m/s 711 mmHg 70%
    14:00 +10°C° 0,6 mm 2 m/s 711 mmHg 74%
    15:00 +9°C° 0,6 mm 2 m/s 711 mmHg 78%
    16:00 +9°C° 0,6 mm 2 m/s 711 mmHg 83%
    17:00 +8°C° 0,2 mm 2 m/s 712 mmHg 86%
    18:00 +7°C° 0,2 mm 2 m/s 712 mmHg 90%
    19:00 +6°C° 0,2 mm 2 m/s 713 mmHg 93%
    20:00 +6°C° 0,1 mm 2 m/s 713 mmHg 93%
    21:00 +6°C° 0,1 mm 2 m/s 713 mmHg 93%
    22:00 +6°C° 0,1 mm 2 m/s 714 mmHg 93%
    23:00 +6°C° 0 mm 2 m/s 714 mmHg 93%
    Arată mai mult